This is the latest recevied weather packets stored in our database for station/object K4KMJ. If no packets are shown the sender has not sent any weather packets the latest 10 day(s).
| Time | Temp. | Humidity | Pressure | Rain* | Wind** | Luminosity | Snow |
|---|---|---|---|---|---|---|---|
| 1777929174 | 24.44° C | 65% | 1017.3 hPa | 0 mm | - | 458 W/m² | - |
| 1777928872 | 23.89° C | 66% | 1017.5 hPa | 0 mm | - | 462 W/m² | - |
| 1777928569 | 24.44° C | 65% | 1017.4 hPa | 0 mm | - | 145 W/m² | - |
| 1777928266 | 25° C | 64% | 1017.5 hPa | 0 mm | - | 521 W/m² | - |
| 1777927964 | 25° C | 65% | 1017.4 hPa | 0 mm | - | 302 W/m² | - |
| 1777927661 | 24.44° C | 65% | 1017.4 hPa | 0 mm | - | 437 W/m² | - |
| 1777927354 | 24.44° C | 64% | 1017.3 hPa | 0 mm | - | 147 W/m² | - |
| 1777927053 | 25° C | 63% | 1017.4 hPa | 0 mm | - | 189 W/m² | - |
| 1777926750 | 25° C | 64% | 1017.5 hPa | 0 mm | - | 583 W/m² | - |
| 1777926450 | 25° C | 63% | 1017.6 hPa | 0 mm | - | 232 W/m² | - |
| 1777926147 | 25° C | 64% | 1017.7 hPa | 0 mm | - | 631 W/m² | - |
| 1777925844 | 24.44° C | 63% | 1017.7 hPa | 0 mm | - | 141 W/m² | - |
| 1777925541 | 25° C | 63% | 1017.7 hPa | 0 mm | - | 709 W/m² | - |
| 1777925239 | 25° C | 63% | 1017.8 hPa | 0 mm | - | 270 W/m² | - |
| 1777924935 | 25° C | 63% | 1017.9 hPa | 0 mm | - | 709 W/m² | - |
| 1777924631 | 25° C | 63% | 1018 hPa | 0 mm | - | 714 W/m² | - |
| 1777924327 | 25° C | 64% | 1017.9 hPa | 0 mm | - | 615 W/m² | - |
| 1777924024 | 25° C | 63% | 1018.2 hPa | 0 mm | - | 291 W/m² | - |
| 1777923721 | 25.56° C | 63% | 1018 hPa | 0 mm | - | 640 W/m² | - |
| 1777923417 | 25° C | 63% | 1018 hPa | 0 mm | - | 729 W/m² | - |
| 1777923115 | 25° C | 64% | 1018.1 hPa | 0 mm | - | 690 W/m² | - |
| 1777922813 | 25° C | 63% | 1018 hPa | 0 mm | - | 396 W/m² | - |
| 1777922510 | 25° C | 63% | 1018.3 hPa | 0 mm | - | 825 W/m² | - |
| 1777922208 | 25.56° C | 63% | 1018.2 hPa | 0 mm | - | 408 W/m² | - |
| 1777921899 | 25° C | 63% | 1018.2 hPa | 0 mm | - | 680 W/m² | - |
* Rain latest hour (hover to see other rain measurements)
** Current wind speed in m/s (hover to see current wind gust speed)